Location: Arbon
(43.0005°N, 0.7472°E)
Time: 01:02:27
(UTC+00:00)

ATLAS CENTAUR R/B - Pass Details

Date: 07 August 2020
Orbit: 476 x 670 km, 64.7° (Epoch: 19 September)

Event Time Altitude Azimuth Distance (km) Brightness Sun altitude
Exits shadow 03:26:18 - 169° (S) 2,466 4.4 -14.6°
Reaches altitude 10° 03:28:12 10° 154° (SSE) 1,872 3.9 -14.3°
Maximum altitude 03:30:59 17° 113° (ESE) 1,425 3.8 -13.9°
Drops below altitude 10° 03:33:40 10° 71° (ENE) 1,802 5.2 -13.5°
Sets 03:36:22 0° 51° (NE) 2,659 6.9 -13.1°
